Location: Cosl�da�
(43.4667°N, 0.2333°W)
Time: 04:19:48
(UTC+00:00)

Daily predictions for brighter satellites

Satellite Brightness Start Highest point End
(mag) Time Altitude Azimuth Time Altitude Azimuth Time Altitude Azimuth
Cosmos 1943 Rocket 3.1 04:06:39 44° ENE 04:06:39 44° ENE 04:10:46 10° NNE
Cosmos 2082 Rocket 4.5 04:15:38 13° S 04:15:38 13° S 04:16:09 10° S
CENTAUR R/B 2.6 04:16:08 69° NE 04:16:08 69° NE 04:22:16 10° NE
Cosmos 2297 4.1 04:21:06 60° NE 04:21:06 60° NE 04:25:49 10° NNE
NOSS 3-2 (A) 3.8 04:27:50 50° N 04:27:50 50° N 04:32:44 10° NNE
Cosmos 2278 Rocket 4.5 04:33:50 11° N 04:33:50 11° N 04:34:11 10° N
NOSS 3-2 (C) 3.2 04:33:35 78° S 04:33:53 81° SE 04:40:14 10° NE
Envisat 4.2 04:32:03 10° NNE 04:36:52 41° E 04:41:38 10° SSE
Meteor 2-3 Rocket 3.7 04:35:28 10° S 04:41:06 83° E 04:46:52 10° NNE
Cosmos 968 Rocket 3.5 04:42:38 43° S 04:44:18 74° ESE 04:49:26 10° NNE
Genesis I 3.9 04:49:24 56° E 04:49:24 56° E 04:52:50 10° SE
Cosmos 921 Rocket 3.6 04:50:35 44° NNE 04:51:35 55° ENE 04:55:57 10° SSE
Meteor 1-26 Rocket 4.2 04:53:51 21° N 04:57:56 87° W 05:03:42 10° S
Cosmos 1812 3.6 04:56:57 33° NNE 04:58:12 47° ENE 05:01:55 10° SSE
Gbstr 26 Del rocket 4.0 05:01:04 31° S 05:01:04 31° S 05:03:48 10° SSE
Cosmos 1570 Rocket 4.3 05:02:25 47° SW 05:02:25 47° SW 05:06:43 10° S
USA 238 DEB 3.5 05:00:10 47° WSW 05:01:58 63° NW 05:08:46 10° NNE
USA 238 3.5 05:00:14 46° WSW 05:02:04 64° NW 05:08:53 10° NNE
Cosmos 2344 3.8 05:03:34 41° WNW 05:05:01 45° NW 05:12:33 10° NNE
Cosmos 1151 Rocket 3.7 05:01:35 15° N 05:05:06 53° E 05:09:22 10° SSE
Cosmos 1766 Rocket 4.5 05:01:18 10° SSE 05:05:27 48° E 05:09:38 10° NNE
Cosmos 2034 Rocket 4.3 05:09:02 41° WSW 05:09:02 41° WSW 05:14:16 10° SSW
USA 215 3.4 05:03:01 10° ESE 05:09:29 70° NE 05:13:03 29° NW
Cosmos 1782 3.3 05:15:56 44° SSW 05:15:56 44° SSW 05:18:50 10° S
Meteor 1-31 Rocket 3.0 05:11:24 10° NNE 05:15:18 71° ESE 05:19:11 10° S
Cosmos 2279 Rocket 4.3 05:09:36 10° N 05:15:47 68° E 05:21:56 10° SSE
Cosmos 1328 Rocket 4.3 05:13:28 10° N 05:17:46 51° ENE 05:22:00 10° SSE
Cosmos 2369 Rocket 2.0 05:14:09 10° SSW 05:19:44 82° WNW 05:25:22 10° NNE
FALCON 9 DEB 4.4 05:21:07 29° NNE 05:21:07 29° NNE 05:23:18 10° NE
SJ-12 3.8 05:16:36 10° N 05:20:44 71° WNW 05:24:50 10° SSW
Cosmos 1862 3.5 05:17:49 10° S 05:21:44 69° E 05:25:40 10° NNE
COSMO-SKYMED 1 2.4 05:18:50 10° S 05:23:10 78° WSW 05:25:48 24° NNW
H-2A R/B 2.7 05:25:03 10° N 05:28:40 54° WNW 05:32:20 10° SSW
Cosmos 1634 Rocket 4.0 05:24:40 10° NNW 05:30:50 60° W 05:36:56 10° S
Cosmos 1867 4.3 05:30:57 31° W 05:31:45 33° WSW 05:36:33 10° S
Cosmos 836 Rocket 4.4 05:27:51 17° NNW 05:31:58 86° WSW 05:37:11 10° SSE
Tsikada Rocket 4.4 05:31:17 10° SW 05:36:56 37° WNW 05:42:42 10° N
CZ-4B R/B 4.1 05:34:39 10° NNE 05:38:01 38° E 05:41:22 10° SSE
CZ-4B R/B 4.3 05:37:32 10° E 05:39:25 14° ENE 05:41:18 10° NNE
MOS 1-B Rocket 4.3 05:33:18 10° S 05:39:27 45° W 05:44:43 11° NNW
Cosmos 1408 Rocket 4.3 05:36:39 10° S 05:40:50 54° E 05:45:03 10° NNE
Cosmos 1656 Rocket 3.5 05:38:01 10° SSW 05:43:25 73° WNW 05:48:52 10° NNE
Cosmos 1503 Rocket 4.0 05:38:38 10° SSW 05:43:53 86° ESE 05:49:15 10° NNE
CZ-4C R/B 2.5 05:41:02 10° S 05:44:11 77° WSW 05:46:01 23° NNW
DMSP B5D2-2 4.4 05:39:26 10° SSE 05:44:36 67° ENE 05:49:47 10° N
CZ-2C R/B 2.9 05:43:17 10° S 05:48:36 48° W 05:53:50 10° NNW
Cosmos 1943 Rocket 3.2 05:48:14 23° WNW 05:49:20 25° NW 05:53:57 10° N
Cosmos 1486 Rocket 4.2 05:46:29 10° SW 05:51:36 49° WNW 05:56:44 10° N
SL-8 R/B 3.8 05:54:22 22° WNW 05:57:24 72° NNE 06:02:10 10° ESE
Cosmos 1515 Rocket 3.7 05:53:44 10° N 05:58:07 76° E 06:02:27 10° SSE
Meteor 2-15 4.4 05:53:23 10° N 05:59:29 85° W 06:05:31 10° S
Cosmos 2180 Rocket 4.4 05:54:57 10° NNW 06:01:07 72° W 06:07:11 10° S
Meteor 1-27 Rocket 4.1 05:55:31 10° N 06:01:09 67° ENE 06:06:51 10° SSE
SJ 16-02 2.3 06:01:04 10° S 06:05:18 51° ESE 06:09:33 10° NNE
Cosmos 773 Rocket 4.2 06:00:09 10° NNW 06:05:25 74° ENE 06:10:34 10° SSE
CENTAUR R/B 3.6 06:03:21 17° WNW 06:06:57 27° NNW 06:13:04 10° NNE
CZ-3 R/B 4.3 06:06:29 10° SSW 06:09:37 12° S 06:11:57 10° SSE
NOAA 11 4.2 06:04:15 10° N 06:09:41 66° WNW 06:15:06 10° SSW
Alouette 2 Rocket 4.4 06:07:42 10° N 06:11:23 43° ENE 06:14:48 10° SSE
Meteor 2-19 Rocket 4.4 06:05:42 10° S 06:11:45 82° W 06:17:50 10° N
Cosmos 1340 Rocket 3.3 06:09:44 10° S 06:13:37 62° E 06:17:33 10° NNE
NOAA 12 4.1 06:09:34 10° NNE 06:14:52 90° W 06:20:07 10° SSW
Envisat 3.9 06:11:30 10° N 06:15:39 26° WNW 06:19:48 10° WSW
Cosmos 1500 Rocket 3.8 06:12:35 10° S 06:17:01 77° E 06:21:30 10° NNE
SL-27 R/B 2.6 06:15:02 10° NNW 06:18:38 80° ENE 06:22:10 10° SSE
DELTA 2 R/B (1) 4.2 06:14:43 10° WSW 06:20:07 55° S 06:25:32 10° E
Cosmos 1939 Rocket 2.8 06:17:24 10° NNE 06:21:22 87° WNW 06:25:14 10° SSW
Cosmos 2098 Rocket 4.2 06:18:59 10° WSW 06:22:00 21° WNW 06:25:34 10° NNW
NOSS 3-2 (C) 4.5 06:21:06 11° W 06:25:38 25° NNW 06:31:03 10° NNE
Cosmos 1805 Rocket 4.3 06:24:23 10° S 06:28:41 58° E 06:33:00 10° NNE
Sich 1 4.2 06:26:26 10° SSE 06:30:33 47° E 06:34:40 10° NNE
H-2A R/B 2.1 06:27:07 10° S 06:31:18 62° WSW 06:35:37 10° NNW
Okean O Rocket 4.3 06:28:08 10° NE 06:31:45 24° E 06:35:19 10° SSE
ATLAS 3B R/B 3.0 06:26:53 10° SSW 06:33:19 70° ESE 06:40:05 10° NE
FALCON 9 R/B 4.3 06:16:04 10° W 06:34:53 42° SSW 06:40:41 10° SE
Cosmos 1174 3.1 06:33:56 10° SSW 06:36:54 85° ESE 06:39:59 10° NNE
ATLAS 5 CENTAUR R/B 1.3 06:33:33 10° SSW 06:37:20 85° SE 06:41:35 10° NE
ADEOS 4.3 06:35:14 10° N 06:39:48 32° WNW 06:44:21 10° SW
Cosmos 158 Rocket 4.4 06:35:40 10° NNW 06:40:46 67° ENE 06:45:59 10° SSE
